Location: Carrer del Canonge
(41.4901°N, 2.2931°E)
Time: 14:30:13
(UTC+00:00)

USA 234 - Pass Details

Date: 18 September 2020
Orbit: 1102 x 1106 km, 123.0° (Epoch: 16 October)

Event Time Altitude Azimuth Distance (km) Brightness Sun altitude
Exits shadow 20:19:21 - 46° (NE) 3,732 5.9 -26.8°
Reaches altitude 10° 20:21:21 10° 44° (NE) 2,966 5.4 -27.1°
Maximum altitude 20:27:52 72° 322° (NW) 1,157 3.4 -28.2°
Drops below altitude 10° 20:34:21 10° 240° (WSW) 2,958 5.8 -29.2°
Sets 20:36:50 0° 238° (WSW) 3,914 6.5 -29.6°
